Regional Weather Roundup
Issued by NWS

Home | Current Version | Previous Version | Text Only | Print | Product List | Glossary On
Versions: 1 2 3 4 5 6 7 8 9 10 11 12 13 14 15 16 17 18 19 20 21 22 23 24 25 26 27
000
ASUS46 KSEW 250010
RWRWA

WASHINGTON REGIONAL WEATHER ROUNDUP
NATIONAL WEATHER SERVICE SEATTLE WA
500 PM PDT SUN JUL 24 2016

NOTE:"FAIR" INDICATES FEW OR NO CLOUDS BELOW 12,000 FEET WITH NO
SIGNIFICANT WEATHER AND/OR OBSTRUCTIONS TO VISIBILITY.

WAZ505-507>509-250100-
SEATTLE, TACOMA, EVERETT, AND VICINITY

CITY           SKY/WX    TMP DP  RH WIND       PRES   REMARKS
EVERETT        SUNNY     75  53  46 N7        30.07F
6HR MIN TEMP:  65; 6HR MAX TEMP:  77;

BOEING FIELD   SUNNY     79  52  38 NW8G18    30.03F
6HR MIN TEMP:  69; 6HR MAX TEMP:  80;

RENTON         SUNNY     80  56  43 NW9       30.03F
6HR MIN TEMP:  69; 6HR MAX TEMP:  80;

SEATAC AIRPORT SUNNY     81  55  40 NW12      30.06F
6HR MIN TEMP:  68; 6HR MAX TEMP:  81;

JBLM-MCCHORD   SUNNY     80  53  37 N14G20    30.04F
6HR MIN TEMP:  70; 6HR MAX TEMP:  81; 6HR PCP: TRACE;

PUYALLUP       FAIR      81  57  44 CALM      30.05F
BREMERTON      SUNNY     79  54  41 NE7       30.08F
6HR MIN TEMP:  70; 6HR MAX TEMP:  81;

JBLM-FT LEWIS  SUNNY     81  55  41 NW12      30.03F
6HR MIN TEMP:  70; 6HR MAX TEMP:  81; 6HR PCP: TRACE;

TACOMA NARROWS SUNNY     77  51  40 N12       30.05F
6HR MIN TEMP:  67; 6HR MAX TEMP:  77;

$$

WAZ001-503-506-510-514-515-250100-
NORTH INTERIOR

CITY           SKY/WX    TMP DP  RH WIND       PRES   REMARKS
BELLINGHAM     SUNNY     77  54  44 VRB3      30.05F
6HR MIN TEMP:  69; 6HR MAX TEMP:  78;

FRIDAY HARBOR  SUNNY     74  52  46 SW8       30.07F
6HR MIN TEMP:  65; 6HR MAX TEMP:  76;

EASTSOUND      SUNNY     73  54  49 N3        30.04F
PORT ANGELES   SUNNY     69  55  60 NW9       30.09F
6HR MIN TEMP:  66; 6HR MAX TEMP:  71;

EDIZ HOOK      FAIR      63  55  74 W17G29    30.08F
6HR MIN TEMP:  58; 6HR MAX TEMP:  63;

PORT TOWNSEND  FAIR      73  54  49 N12       30.06F
NAS WHIDBEY    MOSUNNY   62  52  69 W7        30.11F
6HR MIN TEMP:  59; 6HR MAX TEMP:  66;

ARLINGTON      SUNNY     79  55  44 NW9       30.05F
6HR MIN TEMP:  68; 6HR MAX TEMP:  81;

BURLINGTON     SUNNY     77  54  44 NW9       30.05F
$$

WAZ020-022-039-040-504-511-512-250100-
SOUTHWEST INTERIOR

CITY           SKY/WX    TMP DP  RH WIND       PRES   REMARKS
SHELTON        SUNNY     83  54  36 VRB5      30.01F
6HR MIN TEMP:  72; 6HR MAX TEMP:  84;

OLYMPIA        SUNNY     81  52  36 N12G17    30.04F
6HR MIN TEMP:  69; 6HR MAX TEMP:  82;

CHEHALIS       FAIR      84  55  37 N9G17     30.02F
KELSO          HAZE      86  55  35 N12G17    29.98F VSB 1/2
6HR MIN TEMP:  70; 6HR MAX TEMP:  87;

VANCOUVER      SUNNY     85  52  32 NW12G22   29.95F
6HR MIN TEMP:  68; 6HR MAX TEMP:  86;

SCAPPOOSE, OR  SUNNY     87  53  31 N15G23    29.95F
6HR MIN TEMP:  73; 6HR MAX TEMP:  88;

PORTLAND, OR   SUNNY     87  54  32 NW12G18   29.95F
6HR MIN TEMP:  69; 6HR MAX TEMP:  87;

$$

WAZ021-516-517-250100-
WASHINGTON COAST

CITY           SKY/WX    TMP DP  RH WIND       PRES   REMARKS
FORKS          SUNNY     67  57  70 NW13      30.09F
6HR MIN TEMP:  66; 6HR MAX TEMP:  72;

HOQUIAM        SUNNY     70  60  70 W10       30.06F
6HR MIN TEMP:  66; 6HR MAX TEMP:  73;

ASTORIA, OR    SUNNY     70  58  65 NW20G26   30.05S
6HR MIN TEMP:  69; 6HR MAX TEMP:  74;

$$

WAZ019-023-024-040-518-519-250100-
CASCADE MOUNTAINS AND COLUMBIA GORGE

CITY           SKY/WX    TMP DP  RH WIND       PRES   REMARKS
STAMPEDE PASS  SUNNY     71  50  47 VRB6      30.16S
6HR MIN TEMP:  66; 6HR MAX TEMP:  73;

TROUTDALE, OR  SUNNY     87  58  37 VRB5      29.93F
6HR MIN TEMP:  69; 6HR MAX TEMP:  87;

THE DALLES, OR SUNNY     96  39  13 VRB6      29.89F HX  91
6HR MIN TEMP:  76; 6HR MAX TEMP:  96;

$$

WAZ026-027-041>044-520-521-250100-
EAST SLOPES

CITY           SKY/WX    TMP DP  RH WIND       PRES   REMARKS
OMAK           SUNNY     89  43  20 SW6       29.96F
6HR MIN TEMP:  77; 6HR MAX TEMP:  90;

WENATCHEE      SUNNY     88  49  25 SE8       29.96F
6HR MIN TEMP:  74; 6HR MAX TEMP:  88;

ELLENSBURG     SUNNY     90  43  19 S5        29.99F
6HR MIN TEMP:  76; 6HR MAX TEMP:  92;

YAKIMA         SUNNY     93  44  18 CALM      29.96F
6HR MIN TEMP:  80; 6HR MAX TEMP:  94;

$$

WAZ028-034-035-250100-
COLUMBIA BASIN

CITY           SKY/WX    TMP DP  RH WIND       PRES   REMARKS
EPHRATA        SUNNY     88  45  22 SW5       29.97F
6HR MIN TEMP:  79; 6HR MAX TEMP:  89;

MOSES LAKE     SUNNY     89  42  19 SW6       29.98F
6HR MIN TEMP:  80; 6HR MAX TEMP:  89;

PASCO          SUNNY     91  48  22 N7        29.93F
6HR MIN TEMP:  78; 6HR MAX TEMP:  91;

HERMISTON, OR  SUNNY     92  46  20 CALM      29.93F
6HR MIN TEMP:  79; 6HR MAX TEMP:  94;

$$

WAZ036>038-250100-
NORTHEAST WASHINGTON

CITY           SKY/WX    TMP DP  RH WIND       PRES   REMARKS
SPOKANE GEIGER MOSUNNY   85  43  22 W5        30.03F
6HR MIN TEMP:  76; 6HR MAX TEMP:  86;

SPOKANE FELTS  SUNNY     86  44  23 CALM      30.02F
6HR MIN TEMP:  77; 6HR MAX TEMP:  87;

FAIRCHILD AFB  SUNNY     84  45  25 NE7       30.03F
6HR MIN TEMP:  76; 6HR MAX TEMP:  84; 6HR PCP: TRACE;

COEURDALENE,ID SUNNY     84  50  30 N6        30.00F
6HR MIN TEMP:  75; 6HR MAX TEMP:  84;

DEER PARK      SUNNY     85  44  23 CALM      30.03F
6HR MIN TEMP:  73; 6HR MAX TEMP:  85;

$$

WAZ029>033-250100-
SOUTHEAST WASHINGTON

CITY           SKY/WX    TMP DP  RH WIND       PRES   REMARKS
PULLMAN        SUNNY     84  40  21 S5        30.05F
6HR MIN TEMP:  76; 6HR MAX TEMP:  85;

LEWISTON, ID   SUNNY     92  40  16 VRB5      29.96F
6HR MIN TEMP:  78; 6HR MAX TEMP:  93; 6HR PCP: TRACE;

WALLA WALLA    SUNNY     90  44  20 MISG      29.95F
6HR MIN TEMP:  77; 6HR MAX TEMP:  91;

PENDLETON, OR  SUNNY     89  40  17 VRB5      29.96F
6HR MIN TEMP:  78; 6HR MAX TEMP:  91;

$$




USA.gov is the U.S. government's official web portal to all federal, state and local government web resources and services.